EW3721 Weather Reports


time (UTC)temp
F
wind
direction
speed
knots
gust
knots
rain 1hr
in
rain 24hr
in
rain mn
in
humidity
%
barometer
mb
20260506162606 64 218 0.9 2.6 0.00 0.00 0.00 79 1009.8
20260506162106 64 225 0.9 7.0 0.00 0.00 0.00 78 1009.8
20260506161605 64 208 1.7 7.0 0.00 0.00 0.00 77 1009.8
20260506161106 65 269 1.7 2.6 0.00 0.00 0.00 77 1009.8
20260506160606 65 176 2.6 7.8 0.00 0.00 0.00 77 1009.8
20260506160106 65 215 1.7 5.2 0.00 0.00 0.00 77 1009.9
20260506155106 65 213 1.7 6.1 0.00 0.00 0.00 78 1010.1
20260506154606 65 175 1.7 13.9 0.00 0.00 0.00 79 1010.0
20260506153605 65 207 1.7 5.2 0.00 0.00 0.00 79 1010.1
20260506152106 65 194 1.7 7.0 0.00 0.00 0.00 78 1010.1
20260506151605 65 198 1.7 5.2 0.00 0.00 0.00 78 1010.0
20260506151105 65 214 1.7 5.2 0.00 0.00 0.00 78 1009.9
20260506150605 65 221 0.9 2.6 0.00 0.00 0.00 77 1010.0
20260506150105 65 194 1.7 2.6 0.00 0.00 0.00 77 1010.0
20260506145606 66 189 1.7 7.8 0.00 0.00 0.00 76 1010.1
20260506145105 66 193 1.7 4.3 0.00 0.00 0.00 76 1009.9
20260506144605 66 197 0.9 7.0 0.00 0.00 0.00 75 1010.0
20260506144105 66 206 2.6 5.2 0.00 0.00 0.00 76 1010.1
20260506142606 67 207 1.7 2.6 0.00 0.00 0.00 74 1010.3
20260506142106 67 213 1.7 7.8 0.00 0.00 0.00 76 1010.2
20260506141605 67 153 2.6 4.3 0.00 0.00 0.00 76 1010.3
20260506141106 67 198 2.6 10.4 0.00 0.00 0.00 76 1010.2
20260506140606 67 190 3.5 7.0 0.00 0.00 0.00 76 1010.2
20260506140105 66 214 2.6 5.2 0.00 0.00 0.00 79 1010.2
20260506135605 66 201 0.9 4.3 0.00 0.00 0.00 78 1010.4
20260506134606 65 202 1.7 7.0 0.00 0.00 0.00 80 1010.3
20260506133106 64 203 1.7 4.3 0.00 0.00 0.00 80 1010.2
20260506132605 64 191 1.7 7.0 0.00 0.00 0.00 80 1010.0
20260506132105 64 213 1.7 6.1 0.00 0.00 0.00 80 1010.1
20260506131605 64 192 1.7 7.8 0.00 0.00 0.00 80 1010.1
20260506131105 64 204 0.9 4.3 0.00 0.00 0.00 80 1010.0
20260506130605 64 197 1.7 5.2 0.00 0.00 0.00 79 1010.1
20260506130105 64 187 3.5 6.1 0.00 0.00 0.00 80 1010.1
20260506125605 64 177 1.7 8.7 0.00 0.00 0.00 81 1010.2
20260506125105 64 136 0.9 2.6 0.00 0.00 0.00 80 1010.1
20260506124605 64 206 1.7 5.2 0.00 0.00 0.00 81 1010.2
20260506124105 64 209 1.7 5.2 0.00 0.00 0.00 81 1010.3
20260506123606 64 187 2.6 7.8 0.00 0.00 0.00 82 1010.5
20260506122105 63 181 2.6 7.8 0.00 0.00 0.00 85 1010.8
20260506121605 63 191 2.6 7.0 0.00 0.00 0.00 86 1010.6
20260506121105 62 192 2.6 7.8 0.00 0.00 0.00 87 1010.6
20260506120105 61 191 1.7 5.2 0.00 0.00 0.00 89 1010.5
20260506115605 60 188 2.6 7.0 0.00 0.00 0.00 90 1010.6
20260506115105 60 183 2.6 7.8 0.00 0.00 0.00 91 1010.5
20260506114605 59 170 0.9 4.3 0.00 0.00 0.00 91 1010.6
20260506114105 59 196 2.6 6.1 0.00 0.00 0.00 92 1010.5
20260506113105 58 196 1.7 5.2 0.00 0.00 0.00 93 1010.6
20260506112605 58 186 0.0 4.3 0.00 0.00 0.00 93 1010.6
20260506112105 58 204 0.9 4.3 0.00 0.00 0.00 93 1010.7
20260506111605 57 186 0.9 4.3 0.00 0.00 0.00 93 1010.6
20260506111106 57 192 1.7 5.2 0.00 0.00 0.00 93 1010.7
20260506110605 57 188 2.6 7.0 0.00 0.00 0.00 93 1010.8
20260506110105 57 184 0.9 6.1 0.00 0.00 0.00 93 1010.8
20260506105605 57 175 0.9 2.6 0.00 0.00 0.00 93 1010.8
20260506105105 56 196 1.7 8.7 0.00 0.00 0.00 93 1010.7
20260506104605 56 210 0.9 2.6 0.00 0.00 0.00 93 1010.6
20260506104105 56 201 1.7 7.8 0.00 0.00 0.00 93 1010.6
20260506103105 56 211 0.0 1.7 0.00 0.00 0.00 93 1010.8
20260506102605 56 211 0.0 1.7 0.00 0.00 0.00 92 1010.7
20260506102105 56 196 0.9 2.6 0.00 0.00 0.00 92 1010.7
20260506101605 56 155 0.0 1.7 0.00 0.00 0.00 92 1010.7
20260506101105 56 214 0.0 2.6 0.00 0.00 0.00 92 1010.7
20260506100605 56 212 0.0 1.7 0.00 0.00 0.00 92 1010.6
20260506100105 56 195 0.0 0.9 0.00 0.00 0.00 92 1010.6
20260506095605 56 195 0.0 0.9 0.00 0.00 0.00 91 1010.6
20260506094605 56 180 0.0 2.6 0.00 0.00 0.00 91 1010.5
20260506094105 56 173 1.7 2.6 0.00 0.00 0.00 91 1010.5
20260506093605 56 178 0.9 2.6 0.00 0.00 0.00 91 1010.5
20260506093105 56 198 0.0 2.6 0.00 0.00 0.00 91 1010.5
20260506092605 56 202 1.7 4.3 0.00 0.00 0.00 91 1010.5
20260506092105 56 193 0.9 5.2 0.00 0.00 0.00 91 1010.5
20260506091605 56 204 0.9 5.2 0.00 0.00 0.00 91 1010.7
20260506090604 56 217 0.9 2.6 0.00 0.00 0.00 91 1010.6
20260506090105 56 179 0.0 1.7 0.00 0.00 0.00 91 1010.6
20260506085605 56 144 0.9 2.6 0.00 0.00 0.00 91 1010.7
20260506085105 56 189 0.9 2.6 0.00 0.00 0.00 90 1010.7
20260506084605 56 190 0.0 2.6 0.00 0.00 0.00 90 1010.7
20260506084105 56 158 0.0 2.6 0.00 0.00 0.00 90 1010.8
20260506083605 56 208 0.9 4.3 0.00 0.00 0.00 90 1010.8
20260506083105 56 196 0.9 1.7 0.00 0.00 0.00 90 1010.8
20260506082105 56 194 0.9 2.6 0.00 0.00 0.00 90 1010.9
20260506081605 56 191 1.7 5.2 0.00 0.00 0.00 90 1010.8
20260506081105 56 208 0.9 5.2 0.00 0.00 0.00 90 1010.8
20260506080605 57 198 0.0 4.3 0.00 0.00 0.00 90 1010.7
20260506073105 57 168 0.9 4.3 0.00 0.00 0.00 88 1010.9
20260506072605 57 159 0.9 1.7 0.00 0.00 0.00 88 1010.9
20260506072104 57 202 1.7 7.0 0.00 0.00 0.00 88 1011.0
20260506071604 57 196 0.9 4.3 0.00 0.00 0.00 88 1011.0
20260506071105 57 177 0.0 6.1 0.00 0.00 0.00 88 1011.0
20260506070605 57 215 0.9 2.6 0.00 0.00 0.00 87 1011.0
20260506070105 57 171 0.0 2.6 0.00 0.00 0.00 87 1011.0
20260506062105 58 200 0.0 1.7 0.00 0.00 0.00 85 1010.9
20260506061605 58 202 0.0 0.0 0.00 0.00 0.00 84 1010.9
20260506061104 58 200 0.0 0.0 0.00 0.00 0.00 84 1010.9
20260506060605 59 200 0.0 2.6 0.00 0.00 0.00 84 1011.0
20260506051105 60 159 0.9 2.6 0.00 0.00 0.00 81 1011.2
20260506050605 60 182 0.0 0.9 0.00 0.00 0.00 80 1011.3
20260506045104 61 219 0.9 4.3 0.00 0.00 0.00 80 1011.2
20260506044605 61 240 0.0 1.7 0.00 0.00 0.00 80 1011.3
20260506044104 61 232 0.9 2.6 0.00 0.00 0.00 80 1011.3
20260506043605 61 195 0.9 2.6 0.00 0.00 0.00 80 1011.3
20260506042604 61 186 0.0 5.2 0.00 0.00 0.00 79 1011.3
20260506042105 61 180 0.9 5.2 0.00 0.00 0.00 79 1011.3
20260506041104 62 183 1.7 2.6 0.00 0.00 0.00 78 1011.3
20260506040604 62 188 1.7 8.7 0.00 0.00 0.00 78 1011.3
20260506040105 62 212 0.9 4.3 0.00 0.00 0.00 78 1011.4
20260506034604 62 199 0.9 6.1 0.00 0.00 0.00 77 1011.3
20260506034104 62 207 0.9 2.6 0.00 0.00 0.00 77 1011.2
20260506033605 62 148 0.9 4.3 0.00 0.00 0.00 77 1011.3
20260506033105 62 173 0.9 2.6 0.00 0.00 0.00 76 1011.2
20260506032605 62 205 1.7 2.6 0.00 0.00 0.00 76 1011.2
20260506032104 62 213 2.6 5.2 0.00 0.00 0.00 76 1011.2
20260506031104 62 193 1.7 4.3 0.00 0.00 0.00 75 1011.2
20260506030105 62 214 2.6 5.2 0.00 0.00 0.00 75 1011.3
20260506025605 62 193 1.7 7.0 0.00 0.00 0.00 74 1011.3
20260506025106 62 204 0.9 5.2 0.00 0.00 0.00 74 1011.3
20260506024105 62 210 0.9 7.8 0.00 0.00 0.00 74 1011.4
20260506023605 62 202 1.7 4.3 0.00 0.00 0.00 74 1011.3
20260506023104 62 193 0.9 4.3 0.00 0.00 0.00 74 1011.2
20260506022604 62 185 2.6 5.2 0.00 0.00 0.00 74 1011.3
20260506022104 62 234 0.9 5.2 0.00 0.00 0.00 74 1011.2
20260506021604 62 200 0.9 4.3 0.00 0.00 0.00 73 1011.2
20260506021104 62 205 1.7 6.1 0.00 0.00 0.00 73 1011.1
20260506020604 62 183 0.9 2.6 0.00 0.00 0.00 73 1011.1
20260506020105 62 215 1.7 5.2 0.00 0.00 0.00 73 1011.1
20260506015604 62 206 0.9 2.6 0.00 0.00 0.00 73 1011.0
20260506015104 62 196 2.6 7.8 0.00 0.00 0.00 73 1011.1
20260506014604 62 170 3.5 8.7 0.00 0.00 0.00 73 1011.0
20260506014104 62 209 2.6 4.3 0.00 0.00 0.00 73 1010.9
20260506013604 62 186 2.6 7.8 0.00 0.00 0.00 73 1010.8
20260506012604 62 212 1.7 5.2 0.00 0.00 0.00 72 1010.7
20260506012104 62 198 0.9 2.6 0.00 0.00 0.00 72 1010.7
20260506011604 62 205 0.9 2.6 0.00 0.00 0.00 72 1010.6
20260506010605 63 184 0.9 4.3 0.00 0.00 0.00 71 1010.5
20260506010104 63 190 0.9 5.2 0.00 0.00 0.00 71 1010.5
20260506005605 63 198 1.7 4.3 0.00 0.00 0.00 70 1010.4
20260506005105 63 209 0.9 2.6 0.00 0.00 0.00 70 1010.2
20260506004604 63 214 1.7 5.2 0.00 0.00 0.00 70 1010.2
20260506004105 63 197 1.7 4.3 0.00 0.00 0.00 70 1010.2
20260506003104 63 163 1.7 7.0 0.00 0.00 0.00 70 1010.0
20260506002604 63 212 0.9 4.3 0.00 0.00 0.00 69 1010.0
20260506002105 64 201 1.7 7.8 0.00 0.00 0.00 69 1010.0
20260506001604 64 184 0.9 5.2 0.00 0.00 0.00 68 1009.9
20260506001105 64 203 1.7 2.6 0.00 0.00 0.00 68 1009.7
20260506000604 64 204 0.9 10.4 0.00 0.00 0.00 68 1009.8
20260505235104 65 179 0.9 2.6 0.00 0.00 0.00 67 1009.6
20260505234105 65 166 0.0 2.6 0.00 0.00 0.00 66 1009.5
20260505233604 65 221 0.9 5.2 0.00 0.00 0.00 65 1009.5
20260505233104 66 198 0.9 2.6 0.00 0.00 0.00 65 1009.4
20260505231604 66 179 1.7 6.1 0.00 0.00 0.00 64 1009.2
20260505231104 67 199 1.7 6.1 0.00 0.00 0.00 65 1009.1
20260505230605 67 217 1.7 5.2 0.00 0.00 0.00 64 1009.0
20260505230105 67 193 1.7 7.0 0.00 0.00 0.00 63 1009.0
20260505225605 67 187 2.6 4.3 0.00 0.00 0.00 64 1009.0
20260505225104 68 204 0.9 6.1 0.00 0.00 0.00 63 1008.9
20260505224604 68 172 1.7 7.0 0.00 0.00 0.00 62 1008.7
20260505224104 68 204 1.7 4.3 0.00 0.00 0.00 63 1009.0
20260505223605 68 197 0.9 4.3 0.00 0.00 0.00 63 1008.9
20260505223105 69 179 1.7 8.7 0.00 0.00 0.00 61 1009.0
20260505222605 69 179 2.6 7.8 0.00 0.00 0.00 61 1009.0
20260505221604 70 188 1.7 5.2 0.00 0.00 0.00 60 1009.0
20260505220604 70 206 1.7 8.7 0.00 0.00 0.00 60 1009.0
20260505220104 70 181 2.6 10.4 0.00 0.00 0.00 59 1009.0
20260505215605 71 217 2.6 5.2 0.00 0.00 0.00 59 1008.9
20260505215104 71 203 2.6 8.7 0.00 0.00 0.00 59 1008.9
20260505213104 73 174 2.6 11.3 0.00 0.00 0.00 56 1008.7
20260505212604 73 184 2.6 6.1 0.00 0.00 0.00 55 1008.7
20260505212104 74 192 4.3 10.4 0.00 0.00 0.00 55 1008.6
20260505211604 74 218 1.7 8.7 0.00 0.00 0.00 55 1008.5
20260505211104 74 204 2.6 10.4 0.00 0.00 0.00 54 1008.6
20260505210104 74 182 0.9 2.6 0.00 0.00 0.00 55 1008.7
20260505205604 74 192 0.9 2.6 0.00 0.00 0.00 55 1008.7
20260505205104 74 200 1.7 7.0 0.00 0.00 0.00 55 1008.7
20260505204604 74 180 1.7 5.2 0.00 0.00 0.00 55 1008.6
20260505204104 74 191 1.7 4.3 0.00 0.00 0.00 55 1008.5
20260505203604 75 181 2.6 10.4 0.00 0.00 0.00 56 1008.6
20260505203104 74 207 1.7 5.2 0.00 0.00 0.00 56 1008.6
20260505202605 75 189 2.6 7.8 0.00 0.00 0.00 55 1008.7
20260505202105 75 166 2.6 6.1 0.00 0.00 0.00 55 1008.8
20260505201604 75 191 1.7 7.8 0.00 0.00 0.00 56 1008.8
20260505201104 75 192 2.6 10.4 0.00 0.00 0.00 54 1008.9
20260505200104 76 185 4.3 6.1 0.00 0.00 0.00 53 1008.9
20260505195604 76 204 0.9 6.1 0.00 0.00 0.00 55 1008.9
20260505195104 75 204 4.3 6.1 0.00 0.00 0.00 55 1008.9
20260505193105 76 181 4.3 10.4 0.00 0.00 0.00 55 1009.1
20260505192603 76 178 2.6 8.7 0.00 0.00 0.00 54 1009.2
20260505192104 76 185 1.7 7.8 0.00 0.00 0.00 57 1009.2
20260505190604 76 189 2.6 10.4 0.00 0.00 0.00 57 1009.5
20260505190104 76 194 2.6 7.0 0.00 0.00 0.00 57 1009.5
20260505185604 76 212 2.6 7.8 0.00 0.00 0.00 55 1009.6
20260505185104 75 187 4.3 8.7 0.00 0.00 0.00 56 1009.6
20260505184604 75 170 0.9 7.8 0.00 0.00 0.00 57 1009.6
20260505184104 75 179 2.6 10.4 0.00 0.00 0.00 56 1009.6
20260505183604 75 183 3.5 13.0 0.00 0.00 0.00 55 1009.6
20260505183104 75 194 2.6 10.4 0.00 0.00 0.00 56 1009.6
20260505182604 75 182 3.5 11.3 0.00 0.00 0.00 58 1009.7
20260505182104 75 193 2.6 8.7 0.00 0.00 0.00 57 1009.6
20260505181604 76 161 4.3 8.7 0.00 0.00 0.00 56 1009.7
20260505181104 76 185 4.3 10.4 0.00 0.00 0.00 56 1009.7
20260505180604 76 172 4.3 8.7 0.00 0.00 0.00 54 1009.7
20260505180104 77 210 1.7 10.4 0.00 0.00 0.00 54 1009.7
20260505175604 77 194 4.3 10.4 0.00 0.00 0.00 53 1009.7
20260505175105 77 179 3.5 10.4 0.00 0.00 0.00 52 1009.6
20260505174604 78 194 3.5 10.4 0.00 0.00 0.00 53 1009.6
20260505174104 77 181 2.6 7.8 0.00 0.00 0.00 53 1009.8
20260505173604 77 163 3.5 10.4 0.00 0.00 0.00 55 1009.9
20260505172607 76 175 1.7 4.3 0.00 0.00 0.00 57 1010.0
20260505172107 75 176 5.2 8.7 0.00 0.00 0.00 56 1009.9
20260505171604 75 180 2.6 8.7 0.00 0.00 0.00 56 1009.9
20260505171104 75 186 4.3 7.8 0.00 0.00 0.00 56 1009.9
20260505170604 75 179 4.3 8.7 0.00 0.00 0.00 58 1009.9
20260505170104 75 185 2.6 10.4 0.00 0.00 0.00 57 1009.9
20260505165604 75 168 4.3 7.8 0.00 0.00 0.00 57 1010.0
20260505165104 75 208 3.5 7.8 0.00 0.00 0.00 59 1009.9
20260505164605 74 180 2.6 8.7 0.00 0.00 0.00 57 1010.1
20260505164103 75 176 3.5 8.7 0.00 0.00 0.00 57 1010.2
20260505163604 75 194 5.2 13.9 0.00 0.00 0.00 56 1010.3
20260505163104 75 174 2.6 12.2 0.00 0.00 0.00 57 1010.4